2022/10/23 23:32:07+0000,-33.71,-45.43,-33.54,-36.04,-48.93,-52.84
2022/10/23 23:32:59+0000,-35.24,-45.45,-34.12,-35.36,-49.06,-52.30
2022/10/23 23:33:51+0000,-33.55,-44.59,-33.86,-35.94,-49.57,-52.67
2022/10/23 23:34:43+0000,-34.91,-44.50,-33.83,-35.77,-49.17,-52.39
2022/10/23 23:35:35+0000,-34.43,-46.06,-33.80,-35.88,-50.12,-52.71
2022/10/23 23:36:27+0000,-34.97,-45.34,-33.48,-35.27,-49.72,-53.28
2022/10/23 23:37:19+0000,-33.90,-45.12,-33.93,-35.19,-44.77,-50.28
2022/10/23 23:38:11+0000,-35.22,-44.65,-33.70,-35.70,-49.96,-53.17
2022/10/23 23:39:03+0000,-34.66,-45.49,-33.29,-35.94,-50.30,-52.90
2022/10/23 23:39:55+0000,-33.36,-44.77,-33.89,-35.02,-50.43,-53.26
2022/10/23 23:40:48+0000,-34.32,-44.77,-33.90,-35.31,-49.76,-52.67
2022/10/23 23:41:46+0000,-34.11,-45.47,-33.62,-35.20,-50.14,-52.71
2022/10/23 23:42:38+0000,-34.40,-45.25,-33.93,-34.84,-49.55,-53.15
2022/10/23 23:43:30+0000,-34.75,-44.99,-33.52,-34.80,-48.55,-52.91
2022/10/23 23:44:22+0000,-34.41,-45.59,-33.73,-34.94,-50.13,-52.70
2022/10/23 23:45:14+0000,-35.27,-43.70,-34.24,-34.31,-50.20,-54.08
2022/10/23 23:46:06+0000,-34.79,-45.54,-33.77,-35.07,-49.66,-11.28
2022/10/23 23:46:58+0000,-35.01,-44.57,-34.27,-35.52,-50.27,-53.92
2022/10/23 23:47:50+0000,-34.10,-44.78,-33.69,-35.53,-49.69,-53.91
2022/10/23 23:48:42+0000,-34.40,-44.94,-33.21,-35.25,-50.56,-11.23
2022/10/23 23:49:34+0000,-35.04,-44.20,-33.89,-35.90,-48.74,-10.96
2022/10/23 23:50:26+0000,-34.41,-45.15,-33.38,-34.56,-50.07,-54.68
2022/10/23 23:51:30+0000,-35.52,-44.78,-33.68,-35.11,-49.96,-54.70
2022/10/23 23:52:22+0000,-34.66,-44.26,-33.87,-34.47,-49.98,-54.77
2022/10/23 23:53:14+0000,-33.96,-45.25,-33.19,-37.23,-48.44,-11.36
2022/10/23 23:54:06+0000,-33.79,-44.00,-33.43,-35.52,-48.53,-11.53
2022/10/23 23:54:58+0000,-35.28,-42.36,-33.93,-35.49,-49.27,-54.54
2022/10/23 23:55:50+0000,-34.69,-44.21,-33.44,-36.11,-50.03,-53.74
2022/10/23 23:56:42+0000,-33.98,-44.70,-33.14,-35.51,-50.25,-55.14
2022/10/23 23:57:34+0000,-34.54,-44.20,-33.06,-36.43,-48.91,-54.15
2022/10/23 23:58:26+0000,-34.55,-43.29,-33.75,-36.46,-50.58,-54.18
2022/10/23 23:59:18+0000,-34.25,-43.85,-33.78,-36.28,-49.87,-54.51
2022/10/24 00:00:11+0000,-33.94,-43.60,-33.95,-35.39,-50.16,-54.31
2022/10/24 00:01:13+0000,-34.00,-44.31,-33.62,-36.08,-49.45,-54.58
2022/10/24 00:02:05+0000,-34.80,-44.59,-33.33,-35.68,-48.74,-54.23
2022/10/24 00:02:57+0000,-35.03,-43.95,-34.20,-35.15,-49.45,-53.92
2022/10/24 00:03:49+0000,-34.14,-44.33,-33.21,-36.05,-44.85,-47.58
2022/10/24 00:04:41+0000,-34.88,-42.01,-33.50,-35.62,-46.01,-48.52
2022/10/24 00:05:33+0000,-33.55,-43.85,-33.75,-36.42,-47.11,-48.65
2022/10/24 00:06:25+0000,-34.83,-43.44,-33.31,-36.45,-47.32,-50.20
2022/10/24 00:07:17+0000,-33.80,-44.06,-33.63,-36.74,-46.89,-49.06
2022/10/24 00:08:10+0000,-33.53,-44.43,-33.94,-36.17,-45.63,-48.46
2022/10/24 00:09:02+0000,-34.76,-43.39,-33.07,-36.43,-47.03,-48.66
2022/10/24 00:09:54+0000,-35.20,-44.21,-33.97,-36.23,-46.59,-49.06
2022/10/24 00:10:46+0000,-34.89,-44.53,-33.86,-37.27,-46.89,-49.76
2022/10/24 00:11:47+0000,-34.70,-44.88,-34.32,-35.99,-48.57,-50.39
2022/10/24 00:12:39+0000,-34.95,-45.55,-33.73,-35.75,-47.92,-49.45
2022/10/24 00:13:31+0000,-35.71,-45.14,-33.39,-35.90,-48.01,-49.10
2022/10/24 00:14:23+0000,-34.08,-45.29,-33.82,-35.90,-48.92,-49.78
2022/10/24 00:15:15+0000,-34.31,-43.38,-33.83,-36.26,-48.56,-49.55
2022/10/24 00:16:07+0000,-34.19,-45.46,-33.90,-36.75,-47.99,-49.30
2022/10/24 00:16:59+0000,-34.74,-43.77,-33.39,-36.19,-47.98,-49.46
2022/10/24 00:17:51+0000,-34.06,-43.50,-33.72,-35.78,-48.14,-49.93
2022/10/24 00:18:43+0000,-34.17,-42.72,-33.71,-36.09,-48.30,-49.28
2022/10/24 00:19:36+0000,-34.82,-43.04,-33.70,-36.45,-48.58,-50.27
2022/10/24 00:20:28+0000,-34.11,-44.69,-33.80,-35.77,-48.29,-49.81
2022/10/24 00:21:27+0000,-34.07,-42.85,-33.27,-35.33,-48.86,-50.06
2022/10/24 00:22:19+0000,-32.87,-44.31,-34.16,-35.91,-49.17,-49.88
2022/10/24 00:23:11+0000,-32.69,-42.97,-33.72,-35.39,-49.58,-49.53
2022/10/24 00:24:03+0000,-34.23,-44.55,-33.99,-35.89,-49.67,-50.94
2022/10/24 00:24:55+0000,-34.04,-45.05,-33.64,-36.06,-49.09,-50.63
2022/10/24 00:25:47+0000,-33.35,-43.25,-33.53,-37.10,-49.05,-50.25
2022/10/24 00:26:39+0000,-34.32,-44.44,-34.50,-36.63,-48.68,-50.34
2022/10/24 00:27:31+0000,-33.48,-44.73,-33.92,-36.45,-48.33,-50.58
2022/10/24 00:28:23+0000,-34.59,-45.13,-33.27,-36.50,-48.67,-50.26
2022/10/24 00:29:15+0000,-34.15,-41.71,-33.68,-36.76,-48.44,-50.50
2022/10/24 00:30:07+0000,-33.06,-42.98,-33.39,-36.29,-49.35,-50.68
2022/10/24 00:31:07+0000,-34.88,-43.51,-33.61,-36.27,-49.00,-49.96
2022/10/24 00:31:59+0000,-33.41,-44.33,-34.15,-36.62,-48.59,-50.48
2022/10/24 00:32:51+0000,-34.13,-43.98,-33.98,-36.52,-49.16,-50.12
2022/10/24 00:33:43+0000,-33.86,-45.11,-33.56,-36.62,-48.99,-50.45
2022/10/24 00:34:35+0000,-34.43,-44.50,-33.87,-36.89,-50.11,-53.14
2022/10/24 00:35:27+0000,-33.36,-43.48,-34.00,-35.76,-50.51,-52.82
2022/10/24 00:36:19+0000,-33.57,-44.37,-34.16,-35.63,-50.19,-53.37
2022/10/24 00:37:11+0000,-33.84,-42.25,-34.00,-35.85,-49.98,-53.18
2022/10/24 00:38:03+0000,-34.68,-44.90,-33.45,-35.44,-50.80,-53.43
2022/10/24 00:38:55+0000,-34.25,-44.14,-34.28,-36.56,-49.61,-53.22
2022/10/24 00:39:47+0000,-34.25,-44.09,-34.04,-36.30,-49.50,-53.00
2022/10/24 00:40:39+0000,-33.77,-44.87,-33.60,-36.58,-49.09,-53.62
2022/10/24 00:41:39+0000,-34.69,-43.69,-34.16,-35.86,-50.27,-52.59
2022/10/24 00:42:31+0000,-35.22,-44.00,-33.85,-36.61,-50.74,-53.17
2022/10/24 00:43:23+0000,-34.11,-43.38,-34.14,-36.32,-48.55,-51.35
2022/10/24 00:44:15+0000,-33.23,-42.79,-34.07,-34.83,-49.65,-51.34
2022/10/24 00:45:07+0000,-32.72,-45.05,-33.90,-35.80,-50.49,-51.47
2022/10/24 00:45:59+0000,-33.55,-43.91,-34.04,-35.73,-49.88,-51.16
2022/10/24 00:46:51+0000,-33.98,-44.40,-34.19,-35.70,-49.79,-51.66
2022/10/24 00:47:43+0000,-34.63,-43.44,-34.03,-35.76,-49.72,-51.30
2022/10/24 00:48:35+0000,-33.92,-43.12,-34.23,-35.82,-49.47,-50.90
2022/10/24 00:49:27+0000,-34.02,-41.93,-33.95,-35.45,-49.67,-50.99
2022/10/24 00:50:19+0000,-33.06,-42.31,-33.97,-35.81,-49.47,-51.39
2022/10/24 00:51:19+0000,-33.90,-41.95,-33.83,-34.99,-51.32,-51.06
2022/10/24 00:52:11+0000,-33.77,-43.61,-34.71,-35.84,-49.40,-51.81
2022/10/24 00:53:03+0000,-33.65,-43.36,-33.98,-35.34,-49.63,-51.58
2022/10/24 00:53:55+0000,-33.59,-43.66,-33.84,-34.88,-50.24,-51.56
2022/10/24 00:54:47+0000,-33.61,-42.87,-34.10,-36.19,-49.39,-51.30
2022/10/24 00:55:39+0000,-33.69,-43.30,-34.09,-35.41,-50.69,-51.67
2022/10/24 00:56:31+0000,-34.74,-42.83,-34.19,-34.90,-50.77,-51.38
2022/10/24 00:57:23+0000,-33.82,-43.96,-33.86,-35.98,-50.57,-51.99
2022/10/24 00:58:15+0000,-34.04,-42.76,-33.84,-35.84,-50.05,-51.13
2022/10/24 00:59:07+0000,-34.08,-42.89,-33.36,-35.99,-50.12,-51.53
2022/10/24 00:59:59+0000,-33.68,-44.47,-34.12,-35.44,-50.36,-51.27
2022/10/24 01:00:51+0000,-32.29,-43.78,-33.69,-35.00,-50.49,-51.49
2022/10/24 01:01:50+0000,-34.07,-44.61,-34.48,-35.38,-50.58,-54.00
2022/10/24 01:02:42+0000,-34.73,-43.12,-34.28,-34.93,-51.26,-53.05
2022/10/24 01:03:34+0000,-34.41,-44.87,-33.92,-35.15,-51.26,-52.86
2022/10/24 01:04:26+0000,-34.12,-43.32,-34.39,-34.44,-51.83,-52.93
2022/10/24 01:05:18+0000,-33.85,-43.70,-34.06,-35.13,-51.54,-53.19
2022/10/24 01:06:11+0000,-33.79,-43.83,-34.09,-34.67,-51.51,-53.64
2022/10/24 01:07:03+0000,-34.31,-42.67,-33.95,-35.00,-51.96,-53.38
2022/10/24 01:07:55+0000,-34.36,-44.61,-34.19,-35.04,-51.60,-53.06
2022/10/24 01:08:47+0000,-34.21,-43.37,-34.57,-34.63,-51.68,-52.87
2022/10/24 01:09:39+0000,-33.39,-44.23,-34.01,-35.24,-50.42,-53.88
2022/10/24 01:10:31+0000,-33.95,-44.53,-34.34,-34.44,-50.80,-53.41
2022/10/24 01:11:29+0000,-33.32,-43.83,-34.54,-34.92,-50.50,-52.88
2022/10/24 01:12:21+0000,-34.61,-44.07,-34.42,-34.56,-51.16,-53.31
2022/10/24 01:13:13+0000,-34.44,-43.03,-34.70,-34.52,-49.90,-53.41
2022/10/24 01:14:05+0000,-33.16,-42.88,-33.29,-36.62,-50.60,-53.27
2022/10/24 01:14:57+0000,-34.63,-43.49,-34.07,-35.19,-50.01,-52.95
2022/10/24 01:15:49+0000,-33.98,-42.47,-34.58,-34.82,-49.86,-52.94
2022/10/24 01:16:41+0000,-33.85,-42.80,-34.45,-34.06,-48.92,-53.23
2022/10/24 01:17:33+0000,-33.96,-44.30,-35.14,-34.79,-49.70,-53.29
2022/10/24 01:18:25+0000,-34.06,-44.66,-34.11,-35.00,-49.47,-53.00
2022/10/24 01:19:17+0000,-34.14,-43.51,-34.94,-35.27,-49.90,-52.75
2022/10/24 01:20:10+0000,-34.04,-43.73,-33.87,-35.71,-49.78,-52.95
2022/10/24 01:21:15+0000,-34.08,-42.90,-34.68,-35.39,-49.45,-52.41
2022/10/24 01:22:07+0000,-33.32,-43.59,-33.89,-36.09,-49.67,-53.05
2022/10/24 01:22:59+0000,-33.89,-44.43,-34.36,-35.07,-50.05,-53.02
2022/10/24 01:23:51+0000,-34.61,-44.65,-34.16,-35.63,-50.27,-53.24
2022/10/24 01:24:43+0000,-33.94,-43.20,-33.96,-35.76,-49.16,-53.13
2022/10/24 01:25:35+0000,-34.50,-43.06,-34.10,-34.71,-48.84,-53.03
2022/10/24 01:26:27+0000,-33.49,-43.08,-34.72,-34.94,-49.19,-52.86
2022/10/24 01:27:19+0000,-33.83,-45.09,-34.73,-35.46,-48.82,-53.11
2022/10/24 01:28:11+0000,-34.62,-44.20,-34.04,-35.67,-49.80,-52.69
2022/10/24 01:29:03+0000,-34.12,-45.03,-34.42,-35.34,-49.83,-52.87
2022/10/24 01:29:55+0000,-33.84,-44.47,-34.32,-35.64,-49.07,-53.33
2022/10/24 01:30:47+0000,-34.09,-44.65,-34.11,-35.84,-49.56,-52.83
2022/10/24 01:31:47+0000,-34.59,-44.72,-34.71,-35.19,-49.62,-52.89
2022/10/24 01:32:39+0000,-34.07,-43.43,-34.30,-36.39,-49.94,-53.02
2022/10/24 01:33:31+0000,-34.10,-44.09,-34.12,-36.38,-50.01,-53.25
2022/10/24 01:34:23+0000,-32.98,-43.88,-34.28,-36.08,-49.53,-53.00
2022/10/24 01:35:15+0000,-34.47,-43.52,-34.37,-37.21,-49.42,-52.62
2022/10/24 01:36:07+0000,-34.42,-43.61,-33.79,-36.84,-49.50,-54.28
2022/10/24 01:36:59+0000,-33.79,-43.31,-34.15,-35.93,-49.22,-53.16
2022/10/24 01:37:51+0000,-33.98,-44.96,-33.92,-36.76,-49.43,-53.23
2022/10/24 01:38:43+0000,-34.50,-43.94,-34.62,-35.68,-48.42,-50.67
2022/10/24 01:39:35+0000,-33.65,-43.99,-34.35,-35.53,-49.28,-50.56
2022/10/24 01:40:27+0000,-33.94,-42.73,-34.47,-35.73,-48.60,-51.65
2022/10/24 01:41:27+0000,-34.02,-43.70,-33.98,-35.55,-49.16,-51.74
2022/10/24 01:42:19+0000,-33.41,-43.73,-34.02,-35.71,-49.27,-51.44
2022/10/24 01:43:11+0000,-33.95,-43.06,-34.02,-35.43,-50.41,-51.49
2022/10/24 01:44:03+0000,-34.94,-43.52,-34.06,-36.30,-49.78,-51.05
2022/10/24 01:44:55+0000,-34.85,-43.97,-34.21,-35.14,-49.98,-52.33
2022/10/24 01:45:47+0000,-34.59,-42.77,-34.83,-34.86,-48.94,-52.09
2022/10/24 01:46:39+0000,-33.85,-42.95,-34.33,-34.84,-49.16,-51.62
2022/10/24 01:47:31+0000,-34.30,-42.00,-34.24,-35.55,-49.43,-51.98
2022/10/24 01:48:23+0000,-33.52,-43.95,-34.13,-35.96,-49.59,-52.13
2022/10/24 01:49:15+0000,-34.86,-43.52,-34.45,-35.82,-49.36,-51.91
2022/10/24 01:50:07+0000,-34.19,-42.94,-33.76,-35.61,-49.58,-51.95
2022/10/24 01:51:07+0000,-33.82,-43.28,-34.42,-34.41,-49.34,-51.75
2022/10/24 01:51:59+0000,-33.88,-42.95,-34.85,-35.65,-49.04,-51.50
2022/10/24 01:52:51+0000,-33.61,-43.10,-34.68,-35.54,-49.12,-51.56
2022/10/24 01:53:43+0000,-34.79,-43.24,-34.14,-35.58,-50.02,-51.54
2022/10/24 01:54:35+0000,-34.45,-44.61,-34.20,-34.75,-49.37,-52.06
2022/10/24 01:55:27+0000,-33.33,-42.81,-34.81,-35.81,-49.63,-51.32
2022/10/24 01:56:19+0000,-34.89,-43.01,-34.59,-35.76,-49.17,-51.99
2022/10/24 01:57:11+0000,-33.41,-44.30,-34.20,-35.55,-49.41,-51.47
2022/10/24 01:58:03+0000,-33.90,-43.20,-34.61,-35.71,-49.56,-53.12
2022/10/24 01:58:55+0000,-33.17,-43.63,-34.97,-35.63,-50.07,-52.99
2022/10/24 01:59:47+0000,-34.16,-43.92,-35.08,-35.48,-50.50,-52.93
2022/10/24 02:00:39+0000,-33.89,-43.65,-34.27,-35.08,-51.28,-52.94
2022/10/24 02:01:38+0000,-34.47,-43.32,-35.17,-35.11,-50.71,-52.86
2022/10/24 02:02:30+0000,-33.66,-44.09,-34.93,-35.97,-50.09,-53.49
2022/10/24 02:03:22+0000,-34.50,-43.95,-35.27,-35.22,-50.53,-52.98
2022/10/24 02:04:14+0000,-34.05,-44.03,-34.39,-34.66,-50.85,-52.80
2022/10/24 02:05:06+0000,-33.67,-44.12,-33.56,-35.00,-46.80,-50.68
2022/10/24 02:05:58+0000,-34.50,-43.75,-34.29,-35.04,-49.18,-52.56
2022/10/24 02:06:50+0000,-34.01,-42.79,-34.04,-35.60,-49.42,-52.44
2022/10/24 02:07:42+0000,-33.87,-42.43,-34.72,-35.86,-49.28,-52.83
2022/10/24 02:08:34+0000,-34.40,-43.09,-33.57,-35.13,-50.03,-52.70
2022/10/24 02:09:26+0000,-33.83,-43.07,-34.17,-35.34,-49.71,-52.94
2022/10/24 02:10:18+0000,-34.20,-44.21,-33.47,-35.87,-49.82,-52.20
2022/10/24 02:11:22+0000,-34.40,-44.07,-33.80,-36.05,-51.04,-53.21
2022/10/24 02:12:14+0000,-34.25,-44.21,-33.87,-35.39,-51.17,-52.76
2022/10/24 02:13:06+0000,-33.51,-44.09,-33.82,-36.71,-50.23,-52.91
2022/10/24 02:13:58+0000,-34.39,-44.51,-33.58,-35.41,-49.53,-52.19
2022/10/24 02:14:50+0000,-34.35,-43.87,-33.50,-35.19,-49.61,-52.88
2022/10/24 02:15:42+0000,-34.70,-43.02,-34.01,-35.88,-50.35,-52.81
2022/10/24 02:16:34+0000,-34.14,-42.10,-33.60,-35.46,-50.33,-53.76
2022/10/24 02:17:26+0000,-32.92,-41.80,-34.03,-35.83,-49.85,-52.99
2022/10/24 02:18:18+0000,-33.92,-44.80,-33.58,-35.91,-50.68,-52.82
2022/10/24 02:19:10+0000,-33.81,-43.00,-33.17,-35.89,-49.86,-52.87
2022/10/24 02:20:02+0000,-33.89,-43.60,-32.52,-36.18,-50.18,-52.65
2022/10/24 02:21:02+0000,-34.21,-42.89,-33.05,-35.79,-50.20,-52.51
2022/10/24 02:21:54+0000,-32.98,-42.43,-33.40,-36.02,-49.87,-52.58
2022/10/24 02:22:46+0000,-34.42,-42.12,-33.43,-35.92,-50.33,-52.62
2022/10/24 02:23:38+0000,-34.30,-43.83,-33.32,-35.64,-49.44,-53.08
2022/10/24 02:24:30+0000,-33.94,-42.18,-32.57,-36.23,-50.25,-52.84
2022/10/24 02:25:22+0000,-34.10,-43.00,-33.35,-35.80,-51.06,-52.59
2022/10/24 02:26:14+0000,-35.44,-43.14,-33.78,-35.54,-49.76,-52.27
2022/10/24 02:27:06+0000,-33.33,-43.55,-33.01,-35.12,-50.42,-53.49
2022/10/24 02:27:58+0000,-34.50,-42.66,-33.51,-35.13,-50.46,-52.02
2022/10/24 02:28:50+0000,-33.94,-42.51,-33.35,-35.12,-50.37,-52.04
2022/10/24 02:29:42+0000,-33.46,-42.75,-33.65,-35.66,-50.07,-52.38
2022/10/24 02:30:34+0000,-33.18,-42.82,-34.21,-35.17,-50.69,-52.45
2022/10/24 02:31:34+0000,-33.35,-43.26,-33.83,-35.15,-50.50,-52.84
2022/10/24 02:32:26+0000,-33.61,-43.11,-32.85,-35.53,-51.71,-53.41
2022/10/24 02:33:18+0000,-33.10,-42.58,-33.42,-35.02,-51.18,-52.92
2022/10/24 02:34:10+0000,-33.41,-42.19,-32.26,-35.34,-51.05,-52.64
2022/10/24 02:35:02+0000,-33.64,-42.69,-32.32,-34.92,-51.59,-52.82
2022/10/24 02:35:54+0000,-33.81,-42.33,-32.85,-35.29,-51.43,-53.10
2022/10/24 02:36:46+0000,-33.34,-42.67,-32.81,-35.49,-50.93,-52.78
2022/10/24 02:37:38+0000,-32.72,-42.13,-32.49,-35.32,-49.30,-53.11
2022/10/24 02:38:30+0000,-33.55,-42.74,-32.75,-35.63,-49.18,-52.58
2022/10/24 02:39:22+0000,-33.66,-42.60,-33.21,-36.39,-50.68,-52.73
2022/10/24 02:40:14+0000,-33.92,-42.30,-32.99,-35.47,-50.10,-52.44
2022/10/24 02:41:13+0000,-29.80,-42.63,-32.49,-35.31,-49.48,-52.67
2022/10/24 02:42:05+0000,-33.78,-41.68,-32.62,-35.63,-49.21,-52.97
2022/10/24 02:42:57+0000,-33.00,-40.87,-32.70,-36.64,-49.41,-51.19
2022/10/24 02:43:49+0000,-33.30,-41.64,-32.97,-36.93,-49.70,-51.10
2022/10/24 02:44:41+0000,-29.63,-41.58,-32.68,-36.78,-49.39,-51.60
2022/10/24 02:45:33+0000,-29.75,-41.86,-32.59,-37.92,-49.55,-51.46
2022/10/24 02:46:25+0000,-34.01,-41.41,-32.34,-38.37,-50.24,-51.71
2022/10/24 02:47:17+0000,-33.48,-42.48,-32.40,-38.02,-50.52,-51.29
2022/10/24 02:48:09+0000,-29.50,-41.57,-32.83,-38.82,-49.05,-51.90
2022/10/24 02:49:01+0000,-33.40,-41.41,-32.80,-39.31,-50.16,-51.51
2022/10/24 02:49:53+0000,-30.89,-41.72,-32.46,-37.89,-50.42,-51.54
2022/10/24 02:50:46+0000,-33.27,-42.49,-33.36,-38.82,-50.29,-52.05
2022/10/24 02:51:44+0000,-33.70,-41.35,-33.23,-39.05,-50.13,-52.63
2022/10/24 02:52:36+0000,-33.89,-41.83,-32.00,-38.63,-50.67,-51.02
2022/10/24 02:53:28+0000,-31.37,-40.87,-32.72,-38.74,-50.96,-51.68
2022/10/24 02:54:20+0000,-31.17,-41.00,-32.23,-39.02,-50.75,-51.88
2022/10/24 02:55:12+0000,-34.11,-42.87,-33.03,-40.25,-49.47,-53.40
2022/10/24 02:56:04+0000,-32.85,-41.06,-32.40,-40.21,-50.89,-52.88
2022/10/24 02:56:56+0000,-29.46,-42.20,-32.72,-40.45,-50.25,-52.50
2022/10/24 02:57:48+0000,-32.48,-42.29,-32.99,-41.41,-49.62,-54.00
2022/10/24 02:58:40+0000,-33.14,-41.82,-33.33,-41.88,-50.45,-52.68
2022/10/24 02:59:32+0000,-33.48,-41.33,-32.86,-41.59,-50.69,-52.57
2022/10/24 03:00:24+0000,-33.34,-41.57,-32.63,-41.91,-50.57,-53.45
2022/10/24 03:01:23+0000,-33.26,-41.50,-32.77,-41.06,-50.73,-53.46
2022/10/24 03:02:15+0000,-33.78,-41.45,-33.39,-41.52,-50.54,-53.17
2022/10/24 03:03:07+0000,-32.98,-42.77,-33.14,-41.80,-51.13,-53.11
2022/10/24 03:03:59+0000,-34.10,-41.75,-33.00,-40.91,-51.25,-52.80
2022/10/24 03:04:51+0000,-32.78,-43.02,-33.33,-41.71,-50.10,-52.91
2022/10/24 03:05:43+0000,-33.25,-41.68,-33.44,-41.51,-50.19,-53.37
2022/10/24 03:06:35+0000,-33.49,-43.64,-32.75,-41.06,-50.63,-52.27
2022/10/24 03:07:27+0000,-34.26,-43.07,-32.79,-41.03,-49.76,-52.98
2022/10/24 03:08:19+0000,-33.71,-41.13,-33.24,-40.61,-49.86,-53.08
2022/10/24 03:09:11+0000,-34.02,-42.35,-32.76,-41.89,-50.08,-53.02
2022/10/24 03:10:03+0000,-33.65,-40.90,-33.52,-41.33,-49.73,-52.88
2022/10/24 03:11:02+0000,-33.94,-41.34,-33.17,-41.25,-49.52,-52.48
2022/10/24 03:11:55+0000,-33.35,-39.61,-33.04,-39.98,-50.77,-52.31
2022/10/24 03:12:47+0000,-34.60,-42.02,-33.59,-40.78,-50.28,-51.61
2022/10/24 03:13:39+0000,-33.39,-41.60,-32.91,-39.86,-50.15,-50.23
2022/10/24 03:14:31+0000,-33.17,-41.62,-32.57,-41.14,-50.28,-49.88
2022/10/24 03:15:23+0000,-33.79,-40.92,-32.81,-40.58,-50.13,-50.94
2022/10/24 03:16:15+0000,-33.72,-39.56,-33.13,-40.30,-49.97,-51.01
2022/10/24 03:17:07+0000,-33.26,-40.90,-33.08,-40.86,-50.60,-50.97
2022/10/24 03:17:59+0000,-34.00,-41.44,-33.04,-40.87,-50.36,-51.07
2022/10/24 03:18:51+0000,-32.68,-41.82,-32.94,-40.15,-50.76,-50.50
2022/10/24 03:19:43+0000,-33.81,-40.92,-33.63,-40.04,-50.67,-50.31
2022/10/24 03:20:35+0000,-34.12,-41.71,-33.18,-40.53,-50.83,-50.40
2022/10/24 03:21:34+0000,-33.88,-41.82,-33.19,-40.05,-50.60,-52.10
2022/10/24 03:22:26+0000,-33.84,-40.74,-33.47,-40.47,-50.63,-52.38
2022/10/24 03:23:18+0000,-32.68,-41.23,-33.96,-40.34,-50.86,-51.82
2022/10/24 03:24:10+0000,-33.59,-40.76,-33.18,-39.74,-50.43,-52.39
2022/10/24 03:25:02+0000,-33.32,-40.80,-32.95,-40.12,-50.44,-52.36
2022/10/24 03:25:54+0000,-33.20,-40.72,-32.75,-40.61,-50.23,-51.86
2022/10/24 03:26:46+0000,-33.43,-41.15,-33.30,-39.91,-49.75,-52.48
2022/10/24 03:27:38+0000,-34.70,-41.49,-33.30,-40.52,-50.40,-52.10
2022/10/24 03:28:30+0000,-33.44,-40.69,-32.95,-40.64,-50.43,-52.39
2022/10/24 03:29:22+0000,-33.59,-40.99,-32.48,-40.71,-50.03,-52.30
2022/10/24 03:30:14+0000,-33.84,-41.14,-33.97,-40.50,-50.66,-52.27
2022/10/24 03:31:13+0000,-32.80,-41.08,-33.11,-40.25,-50.45,-52.11
2022/10/24 03:32:05+0000,-33.69,-39.73,-32.98,-40.48,-50.66,-52.23
2022/10/24 03:32:57+0000,-30.41,-40.52,-33.11,-40.79,-50.20,-51.99
2022/10/24 03:33:49+0000,-31.84,-40.07,-32.91,-40.48,-50.57,-52.47
2022/10/24 03:34:41+0000,-33.53,-40.40,-33.13,-39.93,-49.45,-52.21
2022/10/24 03:35:33+0000,-32.42,-40.31,-33.32,-40.47,-50.57,-52.24
2022/10/24 03:36:25+0000,-33.16,-41.23,-32.90,-40.81,-50.58,-52.17
2022/10/24 03:37:17+0000,-32.47,-41.83,-32.92,-40.55,-50.41,-52.29
2022/10/24 03:38:09+0000,-33.19,-41.86,-32.98,-40.89,-51.09,-51.90
2022/10/24 03:39:01+0000,-33.66,-43.08,-33.39,-41.05,-50.80,-52.19
2022/10/24 03:39:53+0000,-32.57,-42.48,-33.45,-41.38,-50.84,-52.55
2022/10/24 03:40:45+0000,-34.13,-41.82,-32.95,-41.32,-50.75,-52.02
2022/10/24 03:41:49+0000,-33.25,-42.64,-33.47,-40.81,-50.51,-52.12
2022/10/24 03:42:41+0000,-32.98,-42.64,-33.19,-41.21,-50.46,-51.79
2022/10/24 03:43:33+0000,-32.84,-42.07,-32.98,-40.89,-50.69,-52.09
2022/10/24 03:44:25+0000,-32.84,-43.08,-33.11,-42.33,-51.05,-52.66
2022/10/24 03:45:17+0000,-33.90,-40.67,-32.94,-41.27,-50.69,-52.59
2022/10/24 03:46:09+0000,-33.26,-42.98,-32.94,-41.43,-50.70,-52.35
2022/10/24 03:47:01+0000,-33.72,-41.20,-32.82,-41.10,-50.33,-52.23
2022/10/24 03:47:53+0000,-33.38,-43.49,-33.49,-42.05,-50.71,-52.72
2022/10/24 03:48:46+0000,-33.27,-43.27,-32.41,-42.38,-50.09,-51.67
2022/10/24 03:49:38+0000,-34.00,-44.16,-33.02,-42.48,-52.31,-55.47
2022/10/24 03:50:30+0000,-32.88,-43.87,-33.13,-41.92,-51.47,-55.01
2022/10/24 03:51:34+0000,-33.65,-42.99,-33.51,-42.62,-51.27,-55.53
2022/10/24 03:52:26+0000,-32.40,-44.45,-33.72,-43.13,-51.68,-54.90
2022/10/24 03:53:18+0000,-33.08,-44.36,-33.41,-43.06,-51.34,-54.66
2022/10/24 03:54:10+0000,-33.73,-44.63,-33.03,-44.45,-51.78,-55.02
2022/10/24 03:55:02+0000,-33.93,-43.97,-32.89,-42.23,-50.98,-55.11
2022/10/24 03:55:54+0000,-33.54,-43.89,-32.74,-42.39,-51.48,-54.89
2022/10/24 03:56:46+0000,-33.97,-44.97,-32.77,-43.14,-51.10,-54.37
2022/10/24 03:57:38+0000,-34.51,-44.70,-32.71,-42.72,-51.83,-55.07
2022/10/24 03:58:30+0000,-34.23,-44.07,-32.82,-41.48,-51.28,-55.37
2022/10/24 03:59:22+0000,-33.36,-44.34,-33.38,-43.40,-51.12,-54.67
2022/10/24 04:00:14+0000,-33.65,-43.75,-33.27,-42.81,-51.16,-54.48
2022/10/24 04:01:14+0000,-34.48,-44.08,-33.55,-43.35,-50.34,-55.10
2022/10/24 04:02:06+0000,-33.79,-44.04,-32.99,-43.88,-50.14,-54.94
2022/10/24 04:02:58+0000,-33.81,-43.83,-33.56,-43.02,-50.81,-54.89
2022/10/24 04:03:50+0000,-34.01,-44.72,-33.05,-43.07,-50.22,-54.92
2022/10/24 04:04:42+0000,-33.77,-43.74,-32.95,-42.95,-49.72,-54.02
2022/10/24 04:05:34+0000,-34.05,-43.90,-34.01,-43.70,-50.44,-54.50
2022/10/24 04:06:26+0000,-34.11,-44.53,-33.87,-43.70,-50.92,-55.40
2022/10/24 04:07:18+0000,-33.46,-43.97,-32.74,-44.30,-50.69,-54.47
2022/10/24 04:08:11+0000,-34.58,-44.36,-33.15,-44.00,-50.53,-55.53
2022/10/24 04:09:03+0000,-35.00,-44.11,-33.23,-44.32,-50.91,-54.86
2022/10/24 04:09:55+0000,-33.84,-44.42,-33.22,-44.32,-50.62,-55.05
2022/10/24 04:10:47+0000,-34.26,-44.54,-32.89,-44.25,-50.55,-54.93
2022/10/24 04:11:46+0000,-34.65,-44.38,-32.84,-44.18,-50.53,-54.89
2022/10/24 04:12:38+0000,-34.39,-43.78,-33.19,-44.68,-50.54,-54.50
2022/10/24 04:13:30+0000,-33.94,-45.07,-32.71,-43.64,-50.56,-54.94
2022/10/24 04:14:22+0000,-33.90,-43.97,-32.96,-44.08,-51.06,-54.82
2022/10/24 04:15:14+0000,-33.63,-45.90,-32.86,-44.23,-51.00,-55.40
2022/10/24 04:16:07+0000,-33.69,-45.40,-33.64,-42.92,-51.05,-54.85
2022/10/24 04:16:59+0000,-34.52,-44.40,-33.03,-42.89,-51.12,-55.30
2022/10/24 04:17:51+0000,-33.74,-44.95,-33.25,-43.30,-51.38,-55.15
2022/10/24 04:18:43+0000,-34.75,-44.35,-33.44,-43.46,-50.47,-54.98
2022/10/24 04:19:35+0000,-32.45,-43.89,-33.04,-44.39,-50.54,-54.20
2022/10/24 04:20:27+0000,-33.85,-44.27,-33.15,-40.40,-50.47,-54.76
2022/10/24 04:21:27+0000,-32.43,-44.76,-32.99,-41.36,-50.22,-54.83
2022/10/24 04:22:19+0000,-33.22,-44.01,-33.05,-41.80,-50.65,-54.49
2022/10/24 04:23:11+0000,-33.69,-44.12,-33.50,-39.80,-50.73,-54.66
2022/10/24 04:24:03+0000,-33.23,-45.04,-32.97,-39.56,-50.82,-54.51
2022/10/24 04:24:55+0000,-33.76,-43.60,-33.22,-39.51,-50.53,-54.83
2022/10/24 04:25:47+0000,-33.61,-44.37,-32.81,-39.68,-49.81,-54.64
2022/10/24 04:26:39+0000,-33.46,-43.56,-33.59,-40.97,-50.52,-54.29
2022/10/24 04:27:31+0000,-33.79,-43.98,-32.58,-41.94,-50.92,-54.97
2022/10/24 04:28:23+0000,-33.61,-44.12,-32.87,-45.68,-51.38,-54.58
2022/10/24 04:29:15+0000,-33.87,-44.38,-33.36,-43.83,-51.34,-54.89
2022/10/24 04:30:07+0000,-33.60,-44.02,-33.04,-44.88,-50.68,-55.16
2022/10/24 04:31:05+0000,-33.30,-43.65,-32.68,-43.90,-50.03,-54.79
2022/10/24 04:31:57+0000,-34.26,-44.69,-33.15,-44.40,-51.24,-54.58
2022/10/24 04:32:50+0000,-32.76,-43.87,-33.22,-44.38,-51.14,-54.92
2022/10/24 04:33:42+0000,-33.92,-44.11,-32.93,-44.78,-50.65,-54.56
2022/10/24 04:34:34+0000,-33.42,-43.47,-33.48,-44.00,-49.97,-54.01
2022/10/24 04:35:26+0000,-32.69,-44.48,-33.70,-43.32,-50.07,-54.27
2022/10/24 04:36:18+0000,-32.79,-43.05,-33.38,-44.32,-49.96,-53.94
2022/10/24 04:37:10+0000,-34.13,-44.09,-33.49,-44.94,-50.03,-54.38
2022/10/24 04:38:02+0000,-34.09,-44.11,-33.78,-44.97,-50.30,-54.55
2022/10/24 04:38:54+0000,-33.63,-44.03,-33.70,-44.63,-50.13,-54.56
2022/10/24 04:39:46+0000,-34.43,-43.10,-33.27,-45.24,-49.98,-54.50
2022/10/24 04:40:38+0000,-34.13,-44.32,-33.79,-43.55,-49.56,-54.19
2022/10/24 04:41:41+0000,-33.15,-43.80,-33.76,-44.95,-49.80,-54.51
2022/10/24 04:42:33+0000,-34.92,-43.65,-33.77,-45.35,-50.13,-54.77
2022/10/24 04:43:25+0000,-34.24,-43.73,-34.33,-41.48,-49.99,-54.63
2022/10/24 04:44:17+0000,-33.73,-42.72,-33.57,-42.47,-50.40,-54.82
2022/10/24 04:45:09+0000,-33.39,-43.69,-33.27,-42.19,-50.28,-54.03
2022/10/24 04:46:01+0000,-34.43,-43.63,-33.46,-41.44,-49.68,-54.87